Regional Weather Roundup
Issued by NWS Little Rock, AR

Home | Current Version | Previous Version | Graphics & Text | Print | Product List | Glossary On
Versions: 1 2 3 4 5 6 7 8 9 10 11 12 13 14 15 16 17 18 19 20 21 22 23 24 25 26 27
000
ASUS44 KLZK 250605
RWRLZK

WEATHER ROUNDUP FOR ARKANSAS
NATIONAL WEATHER SERVICE LITTLE ROCK AR
100 AM CDT WED MAY 25 2016

NOTE: "FAIR" INDICATES FEW OR NO CLOUDS BELOW 12,000 FEET WITH NO
SIGNIFICANT WEATHER AND/OR OBSTRUCTIONS TO VISIBILITY.

ARZ001-003-010-029-250700-
NORTHWEST ARKANSAS

CITY           SKY/WX    TMP DP  RH WIND       PRES   REMARKS
FAYETTEVILLE   CLOUDY    71  69  93 S17G25    29.95S
6HR MIN TEMP:  64; 6HR MAX TEMP:  76; 6HR PCP:  0.07;

FORT SMITH     MOCLDY    72  67  84 E8        29.96F
6HR MIN TEMP:  71; 6HR MAX TEMP:  83;

HARRISON       CLOUDY    65  63  93 S7        29.97R
6HR MIN TEMP:  62; 6HR MAX TEMP:  65;

BENTONVILLE    CLOUDY    73  64  73 SW14G22   29.95R
6HR MIN TEMP:  72; 6HR MAX TEMP:  75;

ROGERS           N/A     73  67  81 S12       29.96R
6HR MIN TEMP:  70; 6HR MAX TEMP:  76;

SILOAM SPGS    MOCLDY    72  63  73 S20       29.96R
6HR MIN TEMP:  70; 6HR MAX TEMP:  77;

HIGHFILL       MOCLDY    73  69  87 S15G25    29.94R
6HR MIN TEMP:  72; 6HR MAX TEMP:  83; 6HR PCP: TRACE;

$$

ARZ004-005-016-250700-
NORTH CENTRAL ARKANSAS

CITY           SKY/WX    TMP DP  RH WIND       PRES   REMARKS
BATESVILLE     CLOUDY    64  61  88 E5        30.03F
6HR MIN TEMP:  64; 6HR MAX TEMP:  64; 6HR PCP:  0.23;

FLIPPIN        PTCLDY   N/A N/A N/A NE7       29.92F
                                      6HR PCP:  0.01;

MTN HOME       PTCLDY    62  61  96 SE7       29.95F
6HR MIN TEMP:  61; 6HR MAX TEMP:  63;

$$

ARZ040-041-250700-
WEST CENTRAL ARKANSAS

CITY           SKY/WX    TMP DP  RH WIND       PRES   REMARKS
MENA           CLOUDY    73  73 100 CALM      30.01F
MOUNT IDA      CLOUDY    72  66  81 VRB5      30.00F
6HR MIN TEMP:  72; 6HR MAX TEMP:  81;

$$

ARZ009-017-025-026-028-250700-
NORTHEAST ARKANSAS

CITY           SKY/WX    TMP DP  RH WIND       PRES   REMARKS
CORNING          N/A     64  64 100 SW7       30.04S
JONESBORO      PTCLDY    66  63  90 CALM      30.04R
6HR MIN TEMP:  65; 6HR MAX TEMP:  67; 6HR PCP:  0.45;

NEWPORT        CLOUDY    65  65 100 S6        30.03F
6HR MIN TEMP:  65; 6HR MAX TEMP:  67; 6HR PCP:  0.43;

WALNUT RIDGE   PTCLDY    63  61  94 CALM      30.03F
6HR MIN TEMP:  63; 6HR MAX TEMP:  66; 6HR PCP:  0.02;

BLYTHEVILLE    MOCLDY    67  67 100 SW5       30.03F
6HR MIN TEMP:  66; 6HR MAX TEMP:  71; 6HR PCP:  1.27;

$$

ARZ022-023-033-042-044-250700-
CENTRAL ARKANSAS

CITY           SKY/WX    TMP DP  RH WIND       PRES   REMARKS
LITTLE ROCK    PTCLDY    67  63  87 S3        30.04F
6HR MIN TEMP:  67; 6HR MAX TEMP:  85; 6HR PCP: TRACE;

N LITTLE ROCK    N/A     65  63  93 S6        30.01F
6HR MIN TEMP:  65; 6HR MAX TEMP:  83;

JACKSONVILLE   PTCLDY    66  65  97 VRB3      30.02F
6HR MIN TEMP:  66; 6HR MAX TEMP:  84; 6HR PCP:  0.02;

SEARCY         CLEAR     64  64 100 SW7       30.03F
6HR MIN TEMP:  64; 6HR MAX TEMP:  68; 6HR PCP:  1.46;

HOT SPRINGS    PTCLDY    69  62  78 E7        30.03F
6HR MIN TEMP:  69; 6HR MAX TEMP:  83;

RUSSELLVILLE   CLOUDY    65  64  97 CALM      30.01F
6HR MIN TEMP:  65; 6HR MAX TEMP:  72; 6HR PCP:  0.01;

CLINTON        FAIR      64  64 100 CALM      30.04F
$$

ARZ036-250700-
EAST ARKANSAS

CITY           SKY/WX    TMP DP  RH WIND       PRES   REMARKS
WEST MEMPHIS   CLOUDY    68  65  90 E3        30.02F
6HR MIN TEMP:  65; 6HR MAX TEMP:  83; 6HR PCP:  0.37;

$$

ARZ050-053-066-070-073-250700-
SOUTHWEST ARKANSAS

CITY           SKY/WX    TMP DP  RH WIND       PRES   REMARKS
ARKADELPHIA    FAIR      69  69 100 CALM      30.03F
6HR MIN TEMP:  69; 6HR MAX TEMP:  85; 6HR PCP:  0.01;

CAMDEN         CLOUDY    73  64  73 E6        30.03F
TEXARKANA      CLOUDY    77  70  79 S9        30.00F
6HR MIN TEMP:  75; 6HR MAX TEMP:  83;

EL DORADO      CLOUDY    76  70  82 SE6       30.04F
6HR MIN TEMP:  73; 6HR MAX TEMP:  84;

DE QUEEN       CLOUDY    76  72  87 E8        29.95F
6HR MIN TEMP:  75; 6HR MAX TEMP:  82;

$$

ARZ056-057-069-250700-
SOUTHEAST ARKANSAS

CITY           SKY/WX    TMP DP  RH WIND       PRES   REMARKS
PINE BLUFF     CLEAR     68  63  84 SE12      30.05F
6HR MIN TEMP:  68; 6HR MAX TEMP:  85;

STUTTGART      CLEAR     68  61  77 SE10      30.04F
6HR MIN TEMP:  66; 6HR MAX TEMP:  88; 6HR PCP:  0.10;

MONTICELLO     MOCLDY    69  65  86 E3        30.08F
6HR MIN TEMP:  69; 6HR MAX TEMP:  86; 6HR PCP:  0.02;


$$






USA.gov is the U.S. government's official web portal to all federal, state and local government web resources and services.